Skip Page Navigation
NASA JPL Caltech
NASA Logo - Jet Propulsion Laboratory + View the NASA Portal
+ Center for Near-Earth Object Studies
JPL Home Earth Solar System Stars & Galaxies Technology
JPL Solar System Dynamics
BODIES ORBITS EPHEMERIDES TOOLS PHYSICAL DATA DISCOVERY FAQ SITE MAP
JPL Small-Body Database Browser
Search: [ help ]  
71863 (2000 VE26)
Classification: Main-belt Asteroid          SPK-ID: 2071863
Ephemeris | Orbit Diagram | Orbital Elements | Mission Design | Physical Parameters | Discovery Circumstances | Close-Approach Data ]

[ show orbit diagram ]
Orbital Elements at Epoch 2459000.5 (2020-May-31.0) TDB
Reference: JPL 18 (heliocentric ecliptic J2000)
 Element Value Uncertainty (1-sigma)   Units 
e .05918217880992001 4.6406e-08  
a 2.307088233723985 9.8243e-09 au
q 2.170549725345469 1.0627e-07 au
i 5.402178939720958 4.6402e-06 deg
node 237.0252174928226 4.9161e-05 deg
peri 350.1942540314267 6.3785e-05 deg
M 33.15446246867877 4.1738e-05 deg
tp 2458882.621602384449
(2020-Feb-03.12160238)
0.00014845 TDB
period 1279.955094482019
3.50
8.1757e-06
2.238e-08
d
yr
n .2812598672812716 1.7965e-09 deg/d
Q 2.4436267421025 1.0406e-08 au
  Orbit Determination Parameters
   # obs. used (total)      689  
   data-arc span      10278 days (28.14 yr)  
   first obs. used      1991-01-18  
   last obs. used      2019-03-10  
   planetary ephem.      DE431  
   SB-pert. ephem.      SB431-N16  
   condition code      0  
   norm. resid. RMS      .61515  
   source      ORB  
   producer      Otto Matic  
   solution date      2019-Jul-13 11:02:32  

Additional Information
 Earth MOID = 1.16045 au 
 Jupiter MOID = 2.53774 au 
 T_jup = 3.579 
[ show covariance matrix ]

Ephemeris | Orbit Diagram | Orbital Elements | Mission Design | Physical Parameters | Discovery Circumstances | Close-Approach Data ]

Physical Parameter Table
Parameter Symbol Value Units Sigma Reference Notes
absolute magnitude H 16.0   n/a MPO426432  

71863 (2000 VE26)          Discovered 2000-Nov-01 by LINEAR at Socorro
Reference: 20031109/Numbers.arcLast Updated: 2004-04-19

[ show close-approach data ]
Alternate Designations
 2000 VE26 = 2002 EQ19 
Ephemeris | Orbit Diagram | Orbital Elements | Mission Design | Physical Parameters | Discovery Circumstances | Close-Approach Data ]
ABOUT SSD CREDITS/AWARDS PRIVACY/COPYRIGHT GLOSSARY LINKS
FirstGov 2020-Oct-28 12:28 UT
(server date/time)  
NASA Home Page
Site Manager:   Ryan S. Park
Webmaster  Alan B. Chamberlin